[[{"header":{"parameterUnit":"m.s-1","parameterCategory":2,"la1":30.2991,"la2":30.254,"lo1":-89.0895,"lo2":-89.0444,"dy":0.0017,"dx":0.0017,"nx":28,"ny":28,"refTime":"2024-07-19T21:00:00:Z","depth":"0","parameterNumber":2,"parameterNumberName":"U-component_of_CURRENTS"},"data":[0,0,0,0,0,0,0,0,0,0,0,0,0,0,0,0,0,0,0,0,0,0,0,0,0,0,0,0,0,0,0,0,0,0,0,0,0,0,0,0,0,0,0,0,0,0,0,0,0,0,0,0,0,0,0,0,0,0,-0.3292,-0.3295,0,-0.3504,-0.3505,-0.3507,-0.3544,-0.3544,-0.3543,-0.3543,-0.3493,-0.3492,-0.3491,0,0,0,0,0,0,0,0,0,0,0,0,0,-0.2895,-0.2901,-0.3291,-0.3295,-0.3299,-0.3504,-0.3505,-0.3507,-0.3544,-0.3544,-0.3543,-0.3543,-0.3493,-0.3492,-0.3491,0,0,0,0,0,0,0,0,0,0,0,0,0,-0.307,-0.2903,-0.3291,-0.3354,-0.3362,-0.3504,-0.3505,-0.3507,-0.3544,-0.3544,-0.3543,-0.3542,-0.3494,-0.3492,-0.3491,-0.3495,0,0,-0.3487,-0.3486,0,0,0,0,0,0,0,0,-0.306,-0.3082,-0.334,-0.335,-0.336,-0.351,-0.3349,-0.3495,-0.3544,-0.346,-0.3543,-0.3542,-0.3484,-0.3484,-0.3508,-0.3493,-0.349,-0.3487,-0.3486,-0.3485,-0.3485,0,0,0,0,0,0,0,-0.3047,-0.3073,-0.3361,-0.3345,-0.3357,-0.3365,-0.3387,-0.3376,-0.3456,-0.3467,-0.3474,-0.3521,-0.3486,-0.3509,-0.3506,-0.349,-0.3487,-0.3485,-0.3484,-0.3484,-0.3405,-0.3404,0,0,0,0,0,0,-0.3054,-0.3063,-0.3354,-0.3369,-0.3222,-0.3374,-0.3398,-0.345,-0.3463,-0.3471,-0.3522,-0.3523,-0.3512,-0.3508,-0.3505,-0.3429,-0.3485,-0.3484,-0.3483,-0.3406,-0.3405,-0.3403,0,0,0,0,0,0,-0.3045,-0.3078,-0.3346,-0.3231,-0.3268,-0.3383,-0.344,-0.3455,-0.3477,-0.351,-0.3509,-0.3529,-0.3511,-0.3506,-0.351,-0.343,-0.3483,-0.3482,-0.3408,-0.3406,-0.3404,-0.3328,0,0,0,0,0,0,-0.3032,-0.3073,-0.3071,-0.3232,-0.3275,-0.3404,-0.3443,-0.346,-0.3515,-0.3517,-0.3516,-0.3512,-0.3511,-0.3512,-0.3508,-0.3429,-0.3481,-0.3409,-0.3407,-0.3404,-0.3332,-0.3324,-0.3317,0,0,0,0,0,-0.3017,-0.3023,-0.307,-0.3104,-0.3283,-0.3405,-0.3423,-0.3493,-0.3515,-0.351,-0.3538,-0.3511,-0.3492,-0.3512,-0.3507,-0.3425,-0.341,-0.3407,-0.3405,-0.3336,-0.3325,-0.3317,0,0,0,0,0,0,-0.2865,-0.3035,-0.3088,-0.3149,-0.3261,-0.3416,-0.3419,-0.349,-0.3514,-0.3505,-0.3526,-0.3524,-0.3485,-0.3484,-0.3506,-0.3397,-0.3433,-0.3429,-0.3381,-0.3372,-0.3364,-0.3334,-0.348,0,0,0,0,0,-0.2835,-0.2874,-0.3051,-0.3099,-0.3146,-0.3282,-0.333,-0.3399,-0.3473,-0.3483,-0.35,-0.3494,-0.3471,-0.345,-0.3439,-0.3398,-0.3391,-0.3334,-0.3326,-0.3319,-0.3293,-0.3264,-0.3251,-0.3394,-0.3394,-0.3394,0,0,-0.2803,-0.2895,-0.2923,-0.3066,-0.3149,-0.3201,-0.3302,-0.3383,-0.34,-0.3469,-0.3456,-0.3475,-0.3462,-0.3414,-0.3391,-0.34,-0.3274,-0.3316,-0.331,-0.3286,-0.3259,-0.3245,-0.3233,-0.3392,-0.3392,-0.3393,0,0,-0.2758,-0.2828,-0.2843,-0.2916,-0.305,-0.313,-0.3154,-0.3303,-0.3323,-0.3356,-0.3389,-0.3372,-0.3364,-0.333,-0.3309,-0.3251,-0.3245,-0.3242,-0.316,-0.3133,-0.3121,-0.311,-0.3078,-0.3065,-0.3225,-0.3225,-0.3225,0,-0.2705,-0.2774,-0.2865,-0.2895,-0.2958,-0.3091,-0.3134,-0.3162,-0.329,-0.3306,-0.3325,-0.3322,-0.3299,-0.3234,-0.3207,-0.322,-0.323,-0.3196,-0.3121,-0.311,-0.31,-0.3071,-0.3057,-0.3221,-0.3221,-0.3222,-0.3222,0,-0.2687,-0.2729,-0.2743,-0.2819,-0.2871,-0.2939,-0.3027,-0.3053,-0.3105,-0.3159,-0.3142,-0.3148,-0.315,-0.3116,-0.3135,-0.3049,-0.3087,-0.3126,-0.3142,-0.3081,-0.3054,-0.3041,-0.3215,-0.3217,-0.3218,-0.3219,0,0,-0.263,-0.2718,-0.2722,-0.276,-0.2855,-0.2919,-0.2903,-0.2974,-0.2982,-0.3013,-0.3019,-0.295,-0.2997,-0.2977,-0.2996,-0.2945,-0.2865,-0.3002,-0.3003,-0.2964,-0.2818,-0.2714,-0.2691,-0.2919,-0.2917,-0.2914,-0.2826,0,-0.2608,-0.265,-0.2698,-0.2737,-0.278,-0.286,-0.2848,-0.2896,-0.2931,-0.2947,-0.2923,-0.2924,-0.2927,-0.2943,-0.2887,-0.2905,-0.2831,-0.2885,-0.2888,-0.2886,-0.2796,-0.267,-0.256,-0.2461,-0.2814,-0.2812,-0.281,0,-0.2581,-0.2625,-0.2661,-0.274,-0.2765,-0.278,-0.2831,-0.2847,-0.2856,-0.2881,-0.2869,-0.2893,-0.2827,-0.2846,-0.2769,-0.2826,-0.2792,-0.2776,-0.2774,-0.2687,-0.2756,-0.2581,-0.2425,-0.2412,-0.279,-0.2792,-0.2793,0,-0.2523,-0.2602,-0.2636,-0.2664,-0.2747,-0.2761,-0.2802,-0.2825,-0.2844,-0.2849,-0.2868,-0.2825,-0.282,-0.2768,-0.2726,-0.2767,-0.2643,-0.2704,-0.2555,-0.255,-0.2452,-0.244,-0.2269,-0.2592,-0.2592,-0.2593,-0.2593,0,-0.2494,-0.2517,-0.2615,-0.2632,-0.2666,-0.2735,-0.2753,-0.2783,-0.2817,-0.282,-0.2841,-0.282,-0.2805,-0.2751,-0.2706,-0.2574,-0.2622,-0.2487,-0.2495,-0.2421,-0.2409,-0.2394,-0.2449,-0.2589,-0.259,-0.2591,-0.2591,0,-0.24,-0.2474,-0.251,-0.2603,-0.2635,-0.2649,-0.2734,-0.275,-0.2794,-0.2799,-0.2802,-0.2814,-0.2731,-0.2683,-0.2595,-0.2536,-0.2378,-0.2367,-0.227,-0.2264,-0.2103,-0.2159,-0.2009,-0.195,-0.2181,-0.2177,-0.2174,0,-0.2348,-0.236,-0.2458,-0.2484,-0.2522,-0.2574,-0.2614,-0.2709,-0.2737,-0.2773,-0.2771,-0.2713,-0.2582,-0.2416,-0.2327,-0.2179,-0.2219,-0.2016,-0.2025,-0.2011,-0.2082,-0.2147,-0.2116,-0.1881,-0.1875,-0.1871,-0.1868,0,-0.2229,-0.2261,-0.2295,-0.2354,-0.2408,-0.2459,-0.2531,-0.253,-0.2627,-0.259,-0.2489,-0.2371,-0.2281,-0.2066,-0.1951,-0.1872,-0.197,-0.1922,-0.1932,-0.1811,-0.1846,-0.1823,-0.2044,-0.183,-0.1834,-0.1837,-0.1839,-0.184,-0.211,-0.2102,-0.2151,-0.2188,-0.2259,-0.2265,-0.2187,-0.2248,-0.2177,-0.2011,-0.2101,-0.1782,-0.1861,-0.1648,-0.1597,-0.1543,-0.1652,-0.151,-0.1575,-0.1639,-0.1567,-0.168,-0.1464,-0.1466,-0.1467,-0.1468,-0.147,0,-0.1942,-0.1956,-0.1986,-0.2015,-0.201,-0.2099,-0.2072,-0.1916,-0.1692,-0.1576,-0.1361,-0.1141,-0.1108,-0.1204,-0.1303,-0.1239,-0.1245,-0.1237,-0.1321,-0.1301,-0.1399,-0.1367,-0.1089,-0.1089,-0.1089,-0.1089,-0.1089,-0.1089,-0.1853,-0.1808,-0.1827,-0.1745,-0.1758,-0.1579,-0.1468,-0.1267,-0.1086,-0.0653,-0.0388,-0.0285,-0.0618,-0.1102,-0.1212,-0.1155,-0.1164,-0.1117,-0.1175,-0.1284,-0.1317,-0.1348,-0.1327,-0.1044,-0.1044,-0.1014,-0.1014,-0.1014]},{"header":{"parameterUnit":"m.s-1","parameterCategory":2,"la1":30.2991,"la2":30.254,"lo1":-89.0895,"lo2":-89.0444,"dy":0.0017,"dx":0.0017,"nx":28,"ny":28,"refTime":"2024-07-19T21:00:00:Z","depth":"0","parameterNumber":3,"parameterNumberName":"V-component_of_CURRENTS"},"data":[0,0,0,0,0,0,0,0,0,0,0,0,0,0,0,0,0,0,0,0,0,0,0,0,0,0,0,0,0,0,0,0,0,0,0,0,0,0,0,0,0,0,0,0,0,0,0,0,0,0,0,0,0,0,0,0,0,0,-0.037,-0.0369,0,-0.0222,-0.022,-0.0218,-0.0102,-0.0101,-0.01,-0.0099,0.0079,0.0082,0.0086,0,0,0,0,0,0,0,0,0,0,0,0,0,-0.0457,-0.0457,-0.0371,-0.0369,-0.0367,-0.0222,-0.022,-0.0218,-0.0102,-0.0101,-0.0099,-0.0098,0.0078,0.0082,0.0086,0,0,0,0,0,0,0,0,0,0,0,0,0,-0.0376,-0.0457,-0.0371,-0.0291,-0.0282,-0.0222,-0.022,-0.0217,-0.0103,-0.0101,-0.0099,-0.0097,0.0076,0.0081,0.0087,0.0085,0,0,0.0103,0.0106,0,0,0,0,0,0,0,0,-0.0381,-0.0373,-0.0305,-0.0296,-0.0287,-0.0178,-0.0185,-0.0115,-0.0103,-0.0172,-0.0099,-0.0097,-0.0005,0.0007,0.003,0.0093,0.0101,0.0104,0.0107,0.011,0.0111,0,0,0,0,0,0,0,-0.0387,-0.0378,-0.0312,-0.0303,-0.0292,-0.0229,-0.0217,-0.0171,-0.01,-0.0165,-0.0156,-0.014,-0.0,0.0024,0.0035,0.0103,0.0104,0.0109,0.0112,0.0114,0.0291,0.0293,0,0,0,0,0,0,-0.0411,-0.0385,-0.0317,-0.0308,-0.033,-0.023,-0.0215,-0.0215,-0.0101,-0.0082,-0.0141,-0.0135,0.0014,0.0028,0.0041,0.0067,0.0109,0.0115,0.0118,0.029,0.0292,0.0293,0,0,0,0,0,0,-0.0414,-0.0408,-0.0323,-0.0341,-0.0326,-0.0231,-0.0231,-0.0213,-0.0187,-0.0083,-0.0063,-0.0133,0.0016,0.0034,0.0097,0.0074,0.0117,0.0122,0.0288,0.029,0.0292,0.0105,0,0,0,0,0,0,-0.0418,-0.041,-0.0421,-0.0344,-0.0325,-0.0296,-0.0232,-0.0212,-0.0179,-0.0169,-0.007,-0.0051,0.0019,0.0089,0.0103,0.0082,0.0126,0.0286,0.0289,0.0292,0.0109,0.01,0.0093,0,0,0,0,0,-0.0422,-0.0441,-0.0423,-0.0414,-0.0344,-0.0297,-0.0283,-0.0208,-0.0181,-0.0178,-0.0096,-0.0054,0.0117,0.0093,0.0109,0.009,0.0285,0.0288,0.0291,0.0113,0.0102,0.0093,0,0,0,0,0,0,-0.0479,-0.0428,-0.0407,-0.041,-0.0363,-0.0277,-0.0267,-0.0224,-0.016,-0.015,-0.0053,-0.0029,0.0024,0.0095,0.0066,0.0162,0.0215,0.0221,0.0074,0.0064,0.0056,0.0024,0.0131,0,0,0,0,0,-0.0503,-0.0506,-0.0444,-0.0447,-0.0432,-0.0358,-0.0331,-0.0286,-0.0217,-0.0187,-0.0115,-0.0024,0.0049,0.0084,0.0163,0.0193,0.0258,0.0205,0.0197,0.0189,0.0182,0.025,0.0245,0.0304,0.0304,0.0304,0,0,-0.0523,-0.0497,-0.0497,-0.0459,-0.042,-0.0406,-0.0338,-0.031,-0.0293,-0.0181,-0.014,-0.0059,0.0056,0.0104,0.0135,0.0155,0.0211,0.0193,0.0184,0.0182,0.0252,0.0246,0.024,0.0306,0.0306,0.0305,0,0,-0.0567,-0.055,-0.0568,-0.054,-0.0494,-0.0449,-0.0451,-0.0378,-0.0342,-0.0298,-0.0202,-0.0143,-0.0031,0.0037,0.0089,0.0084,0.0166,0.0126,0.0044,0.0108,0.0102,0.0097,0.0167,0.017,0.0117,0.0117,0.0116,0,-0.0595,-0.0611,-0.0563,-0.0571,-0.0557,-0.048,-0.0493,-0.0447,-0.036,-0.0335,-0.0301,-0.014,-0.0067,-0.0001,0.0003,0.0054,0.0119,0.0052,0.0089,0.0086,0.0084,0.0157,0.0163,0.0108,0.0109,0.011,0.0111,0,-0.0645,-0.0659,-0.0668,-0.0656,-0.0636,-0.0636,-0.0572,-0.0545,-0.0498,-0.0442,-0.0373,-0.027,-0.0171,-0.0141,-0.0078,-0.0042,0.0017,0.0062,0.0089,0.0065,0.0146,0.0155,0.0096,0.0099,0.0101,0.0103,0,0,-0.0705,-0.0708,-0.071,-0.0733,-0.0687,-0.0681,-0.0658,-0.0616,-0.0596,-0.0523,-0.0488,-0.039,-0.033,-0.0264,-0.0178,-0.0135,-0.0109,-0.0054,-0.0046,-0.0029,0.0046,0.0146,0.0167,-0.006,-0.006,-0.0059,0.0102,0,-0.0762,-0.0815,-0.0788,-0.0831,-0.0857,-0.079,-0.0772,-0.0719,-0.0655,-0.0597,-0.0504,-0.0431,-0.0374,-0.0331,-0.0284,-0.0129,-0.009,-0.0155,0.0107,0.0115,0.0169,0.0178,0.0246,0.0401,0.0112,0.0113,0.0114,0,-0.0819,-0.0852,-0.0913,-0.0935,-0.0937,-0.0941,-0.0906,-0.0881,-0.0773,-0.0718,-0.0639,-0.0532,-0.0442,-0.0395,-0.02,-0.0237,-0.012,-0.002,-0.001,0.0154,0.0232,0.0388,0.043,0.0564,0.013,0.0128,0.0127,0,-0.0895,-0.094,-0.1001,-0.1007,-0.1006,-0.1017,-0.1008,-0.0923,-0.0882,-0.0792,-0.0728,-0.061,-0.051,-0.0377,-0.0156,-0.0175,0.0075,0.008,0.0273,0.0282,0.043,0.0451,0.0597,0.0192,0.0191,0.0191,0.0191,0,-0.097,-0.1018,-0.1049,-0.1083,-0.1142,-0.111,-0.1125,-0.1083,-0.0985,-0.0897,-0.0801,-0.0675,-0.0498,-0.0311,-0.0162,0.0109,0.0077,0.0266,0.0332,0.0371,0.0384,0.0583,0.0628,0.0197,0.0196,0.0195,0.0194,0,-0.1035,-0.1056,-0.113,-0.1166,-0.1182,-0.1223,-0.1202,-0.1183,-0.109,-0.0964,-0.0927,-0.0704,-0.0449,-0.0254,0.0011,0.014,0.0472,0.0451,0.0489,0.0556,0.0835,0.0866,0.1109,0.1225,0.0671,0.0674,0.0677,0,-0.1072,-0.1118,-0.1195,-0.1239,-0.1262,-0.1309,-0.1312,-0.1248,-0.1178,-0.0935,-0.0847,-0.0591,-0.0322,0.0077,0.0311,0.0582,0.0666,0.0787,0.0746,0.087,0.0954,0.096,0.1039,0.087,0.0874,0.0878,0.0881,0,-0.1133,-0.1155,-0.1213,-0.1305,-0.1349,-0.1374,-0.1353,-0.1273,-0.1115,-0.0938,-0.06,-0.0372,-0.0006,0.0375,0.0666,0.0805,0.091,0.0868,0.0993,0.1122,0.1145,0.1283,0.0739,0.0912,0.0909,0.0906,0.0905,0.0903,-0.1157,-0.1213,-0.1279,-0.1358,-0.1403,-0.1355,-0.1254,-0.1139,-0.0923,-0.0518,-0.0361,0.0077,0.0461,0.0903,0.1049,0.1278,0.1206,0.1359,0.1388,0.1383,0.1494,0.1021,0.1267,0.1266,0.1265,0.1265,0.1264,0,-0.1176,-0.1236,-0.1322,-0.1369,-0.1366,-0.1385,-0.1208,-0.1002,-0.0625,-0.0317,0.0075,0.0689,0.1087,0.1331,0.1616,0.1782,0.1786,0.1844,0.1852,0.191,0.1503,0.1509,0.1825,0.1825,0.1825,0.1825,0.1825,0.1824,-0.1188,-0.1267,-0.1313,-0.1307,-0.13,-0.1098,-0.0916,-0.06,-0.0298,0.0305,0.0713,0.1029,0.1366,0.1869,0.215,0.2173,0.2315,0.2306,0.2385,0.2069,0.2024,0.1981,0.1998,0.2412,0.2412,0.2792,0.2795,0.2798]}],[{"header":{"parameterUnit":"m.s-1","parameterCategory":2,"la1":30.2991,"la2":30.254,"lo1":-89.0895,"lo2":-89.0444,"dy":0.0017,"dx":0.0017,"nx":28,"ny":28,"refTime":"2024-07-19T21:00:00:Z","depth":"2","parameterNumber":2,"parameterNumberName":"U-component_of_CURRENTS"},"data":[0,0,0,0,0,0,0,0,0,0,0,0,0,0,0,0,0,0,0,0,0,0,0,0,0,0,0,0,0,0,0,0,0,0,0,0,0,0,0,0,0,0,0,0,0,0,0,0,0,0,0,0,0,0,0,0,0,0,-0.2587,-0.2587,0,-0.2571,-0.257,-0.257,-0.2527,-0.2527,-0.2526,-0.2525,-0.2571,-0.2573,-0.2575,0,0,0,0,0,0,0,0,0,0,0,0,0,-0.2536,-0.2537,-0.2587,-0.2587,-0.2587,-0.2571,-0.257,-0.257,-0.2528,-0.2527,-0.2526,-0.2525,-0.2571,-0.2573,-0.2576,0,0,0,0,0,0,0,0,0,0,0,0,0,-0.2542,-0.2538,-0.2587,-0.2564,-0.2562,-0.2571,-0.257,-0.257,-0.2528,-0.2527,-0.2525,-0.2524,-0.257,-0.2573,-0.2576,-0.2619,0,0,-0.2585,-0.2586,0,0,0,0,0,0,0,0,-0.2542,-0.2544,-0.2568,-0.2566,-0.2564,-0.2551,-0.2569,-0.259,-0.2528,-0.254,-0.2525,-0.2524,-0.2572,-0.2575,-0.2572,-0.2621,-0.2623,-0.2585,-0.2587,-0.2588,-0.2589,0,0,0,0,0,0,0,-0.2541,-0.2544,-0.258,-0.2568,-0.2565,-0.2539,-0.2539,-0.2573,-0.2564,-0.2539,-0.2536,-0.2536,-0.2571,-0.2569,-0.2573,-0.2624,-0.2585,-0.2588,-0.259,-0.2591,-0.2629,-0.2628,0,0,0,0,0,0,-0.2549,-0.2544,-0.258,-0.2579,-0.255,-0.2542,-0.2541,-0.2555,-0.2562,-0.2561,-0.2537,-0.2534,-0.2565,-0.257,-0.2575,-0.2593,-0.2588,-0.2591,-0.2593,-0.2629,-0.2629,-0.2628,0,0,0,0,0,0,-0.2549,-0.2553,-0.2581,-0.2561,-0.2562,-0.2544,-0.256,-0.2556,-0.2558,-0.256,-0.256,-0.2544,-0.2564,-0.257,-0.2588,-0.2595,-0.2593,-0.2595,-0.263,-0.2629,-0.2628,-0.2651,0,0,0,0,0,0,-0.2548,-0.2554,-0.2563,-0.2562,-0.2564,-0.2586,-0.2561,-0.2556,-0.256,-0.2556,-0.2567,-0.2569,-0.2563,-0.2583,-0.2591,-0.26,-0.2598,-0.2631,-0.263,-0.2628,-0.2651,-0.2651,-0.265,0,0,0,0,0,-0.2546,-0.2563,-0.2564,-0.2567,-0.2579,-0.2587,-0.2586,-0.2567,-0.2562,-0.2565,-0.2559,-0.2569,-0.2578,-0.2586,-0.2595,-0.2605,-0.2632,-0.263,-0.2629,-0.2651,-0.2651,-0.265,0,0,0,0,0,0,-0.2536,-0.256,-0.2561,-0.2582,-0.2585,-0.258,-0.2581,-0.2579,-0.2578,-0.2577,-0.2576,-0.2579,-0.2588,-0.2594,-0.2602,-0.2604,-0.2601,-0.2601,-0.2615,-0.2615,-0.2614,-0.2614,-0.26,0,0,0,0,0,-0.2544,-0.2563,-0.2577,-0.259,-0.2598,-0.2596,-0.2597,-0.2592,-0.2592,-0.259,-0.2596,-0.2593,-0.2589,-0.26,-0.2598,-0.2625,-0.2612,-0.2627,-0.2626,-0.2626,-0.2628,-0.2615,-0.2614,-0.2622,-0.2622,-0.2622,0,0,-0.2538,-0.2556,-0.2563,-0.2589,-0.2591,-0.2604,-0.2593,-0.2603,-0.2606,-0.2601,-0.2609,-0.2601,-0.2592,-0.2596,-0.2602,-0.2606,-0.2613,-0.2624,-0.2624,-0.2626,-0.2613,-0.2613,-0.2612,-0.2621,-0.2621,-0.2621,0,0,-0.2532,-0.2562,-0.2572,-0.2588,-0.2604,-0.2611,-0.2621,-0.2629,-0.2626,-0.2643,-0.2618,-0.2612,-0.2632,-0.261,-0.2605,-0.2608,-0.2606,-0.2606,-0.2619,-0.2607,-0.2607,-0.2606,-0.2575,-0.2572,-0.2613,-0.2613,-0.2613,0,-0.2518,-0.2545,-0.2572,-0.2588,-0.2601,-0.262,-0.2631,-0.2639,-0.2646,-0.2647,-0.2647,-0.2635,-0.2634,-0.2619,-0.2606,-0.261,-0.2596,-0.2628,-0.2609,-0.2608,-0.2608,-0.2576,-0.2572,-0.2614,-0.2614,-0.2614,-0.2613,0,-0.2518,-0.2544,-0.2555,-0.2588,-0.2606,-0.2623,-0.2646,-0.266,-0.2672,-0.2673,-0.267,-0.2656,-0.2647,-0.264,-0.263,-0.2617,-0.2604,-0.2607,-0.2617,-0.2609,-0.2575,-0.257,-0.2615,-0.2615,-0.2614,-0.2614,0,0,-0.2471,-0.2541,-0.2543,-0.2563,-0.2613,-0.2625,-0.265,-0.2669,-0.2679,-0.2687,-0.2687,-0.2671,-0.2666,-0.2657,-0.2639,-0.2628,-0.2606,-0.2621,-0.262,-0.2601,-0.2566,-0.2462,-0.2447,-0.2613,-0.2613,-0.2613,-0.2539,0,-0.2457,-0.2493,-0.2532,-0.2562,-0.2586,-0.2627,-0.2648,-0.267,-0.2688,-0.2697,-0.2686,-0.268,-0.2673,-0.2665,-0.2655,-0.2622,-0.2598,-0.2625,-0.2566,-0.2564,-0.2483,-0.244,-0.2266,-0.2178,-0.2535,-0.2534,-0.2534,0,-0.2435,-0.247,-0.2499,-0.2563,-0.2576,-0.2596,-0.2638,-0.2659,-0.2683,-0.2697,-0.2699,-0.2695,-0.2677,-0.2672,-0.2624,-0.2644,-0.2603,-0.2576,-0.2573,-0.2467,-0.2452,-0.2245,-0.2157,-0.2527,-0.2527,-0.2528,-0.2528,0,-0.2383,-0.2444,-0.2469,-0.2491,-0.2564,-0.2578,-0.2612,-0.2649,-0.267,-0.269,-0.2705,-0.2694,-0.2682,-0.265,-0.2598,-0.2616,-0.2534,-0.2553,-0.2414,-0.2406,-0.2239,-0.2217,-0.2503,-0.2503,-0.2503,-0.2504,-0.2504,0,-0.2356,-0.2371,-0.2448,-0.2462,-0.2488,-0.2549,-0.2572,-0.2606,-0.2652,-0.2657,-0.2695,-0.268,-0.2678,-0.2635,-0.2594,-0.2478,-0.2529,-0.2397,-0.2375,-0.2238,-0.2217,-0.2513,-0.2515,-0.2501,-0.2501,-0.2502,-0.2502,0,-0.228,-0.2339,-0.2365,-0.2439,-0.2463,-0.2474,-0.255,-0.2567,-0.2625,-0.2631,-0.2638,-0.2667,-0.2601,-0.2572,-0.2502,-0.245,-0.2365,-0.2306,-0.2133,-0.2092,-0.2249,-0.2253,-0.2153,-0.2148,-0.2145,-0.2141,-0.2139,0,-0.2239,-0.2248,-0.2322,-0.2338,-0.2368,-0.2408,-0.2438,-0.2529,-0.2548,-0.2597,-0.2585,-0.2556,-0.2481,-0.2355,-0.2249,-0.2131,-0.223,-0.1921,-0.1918,-0.2221,-0.2211,-0.2221,-0.223,-0.1703,-0.1697,-0.1692,-0.1688,0,-0.2145,-0.2172,-0.2196,-0.223,-0.2264,-0.2294,-0.2342,-0.2356,-0.2439,-0.2458,-0.2427,-0.2376,-0.2257,-0.2044,-0.1912,-0.1834,-0.1933,-0.1816,-0.2162,-0.1822,-0.1792,-0.1784,-0.1809,-0.1645,-0.1649,-0.1652,-0.1655,-0.1656,-0.2051,-0.2044,-0.2075,-0.2087,-0.2128,-0.212,-0.208,-0.2148,-0.2146,-0.2107,-0.2188,-0.2049,-0.1999,-0.1681,-0.1566,-0.1475,-0.1615,-0.1553,-0.157,-0.1592,-0.1556,-0.1521,-0.1316,-0.1318,-0.132,-0.1322,-0.1324,0,-0.1911,-0.1916,-0.1927,-0.1917,-0.1871,-0.1956,-0.1963,-0.1887,-0.1816,-0.184,-0.1793,-0.1565,-0.1406,-0.1356,-0.1135,-0.1092,-0.1112,-0.1056,-0.1086,-0.1128,-0.1166,-0.1113,-0.0752,-0.0751,-0.0749,-0.0748,0,0,-0.1837,-0.1787,-0.1789,-0.1646,-0.1634,-0.1504,-0.1463,-0.1419,-0.139,-0.1293,-0.1238,-0.1322,-0.1308,-0.104,-0.0967,-0.0816,-0.097,-0.0773,-0.1228,-0.1304,-0.134,-0.144,-0.1402,0,0,0,0,0]},{"header":{"parameterUnit":"m.s-1","parameterCategory":2,"la1":30.2991,"la2":30.254,"lo1":-89.0895,"lo2":-89.0444,"dy":0.0017,"dx":0.0017,"nx":28,"ny":28,"refTime":"2024-07-19T21:00:00:Z","depth":"2","parameterNumber":3,"parameterNumberName":"V-component_of_CURRENTS"},"data":[0,0,0,0,0,0,0,0,0,0,0,0,0,0,0,0,0,0,0,0,0,0,0,0,0,0,0,0,0,0,0,0,0,0,0,0,0,0,0,0,0,0,0,0,0,0,0,0,0,0,0,0,0,0,0,0,0,0,-0.0356,-0.0356,0,-0.0297,-0.0296,-0.0296,-0.0251,-0.0251,-0.025,-0.025,-0.0128,-0.0125,-0.0122,0,0,0,0,0,0,0,0,0,0,0,0,0,-0.0398,-0.0397,-0.0356,-0.0356,-0.0355,-0.0297,-0.0296,-0.0295,-0.0251,-0.0251,-0.025,-0.025,-0.0129,-0.0125,-0.0122,0,0,0,0,0,0,0,0,0,0,0,0,0,-0.0363,-0.0397,-0.0356,-0.0326,-0.0323,-0.0297,-0.0296,-0.0295,-0.0251,-0.0251,-0.025,-0.025,-0.013,-0.0126,-0.0121,-0.0106,0,0,-0.0108,-0.0106,0,0,0,0,0,0,0,0,-0.0365,-0.0362,-0.0331,-0.0328,-0.0324,-0.0281,-0.0266,-0.0229,-0.0251,-0.0278,-0.025,-0.0249,-0.0174,-0.0166,-0.0156,-0.01,-0.0095,-0.0108,-0.0105,-0.0103,-0.0102,0,0,0,0,0,0,0,-0.0368,-0.0364,-0.0332,-0.033,-0.0326,-0.0304,-0.0299,-0.0259,-0.0228,-0.0276,-0.0272,-0.0266,-0.0171,-0.0161,-0.0153,-0.0093,-0.0108,-0.0104,-0.0101,-0.0099,-0.0009,-0.001,0,0,0,0,0,0,-0.0378,-0.0366,-0.0334,-0.0331,-0.0344,-0.0304,-0.0298,-0.0295,-0.023,-0.022,-0.0267,-0.0265,-0.0168,-0.0158,-0.0148,-0.0111,-0.0103,-0.0099,-0.0097,-0.0009,-0.0009,-0.001,0,0,0,0,0,0,-0.0379,-0.0376,-0.0337,-0.0347,-0.0341,-0.0304,-0.0301,-0.0294,-0.0283,-0.0224,-0.0213,-0.0263,-0.0168,-0.0155,-0.0122,-0.0106,-0.0097,-0.0093,-0.0009,-0.0009,-0.0009,-0.0046,0,0,0,0,0,0,-0.0381,-0.0377,-0.0385,-0.0348,-0.034,-0.0327,-0.0302,-0.0294,-0.0281,-0.0277,-0.0217,-0.0205,-0.0166,-0.0129,-0.0117,-0.01,-0.009,-0.0009,-0.0009,-0.0009,-0.0044,-0.0047,-0.005,0,0,0,0,0,-0.0382,-0.0398,-0.0386,-0.0382,-0.0351,-0.0328,-0.0322,-0.0293,-0.0281,-0.0281,-0.0244,-0.0207,-0.0123,-0.0126,-0.0112,-0.0093,-0.0008,-0.0009,-0.0009,-0.0043,-0.0047,-0.005,0,0,0,0,0,0,-0.0424,-0.0394,-0.038,-0.0386,-0.0361,-0.032,-0.0322,-0.0299,-0.0271,-0.0268,-0.0212,-0.0198,-0.0162,-0.013,-0.0135,-0.0071,-0.0058,-0.0056,-0.0088,-0.0091,-0.0094,-0.0103,-0.0086,0,0,0,0,0,-0.0437,-0.0439,-0.0402,-0.0409,-0.0399,-0.0361,-0.0351,-0.0329,-0.0296,-0.0284,-0.0241,-0.0196,-0.0154,-0.0127,-0.009,-0.0056,-0.0018,-0.0036,-0.0039,-0.0041,-0.0041,0.002,0.0023,-0.0011,-0.0011,-0.0011,0,0,-0.0455,-0.044,-0.0441,-0.0418,-0.0398,-0.0388,-0.0354,-0.0342,-0.0328,-0.0274,-0.0248,-0.0207,-0.015,-0.0113,-0.0093,-0.0082,-0.0012,-0.0042,-0.0044,-0.0042,0.002,0.0023,0.0027,-0.0012,-0.0011,-0.0011,0,0,-0.0493,-0.0479,-0.0492,-0.0472,-0.0446,-0.0417,-0.0416,-0.0375,-0.0352,-0.0324,-0.0279,-0.0231,-0.0176,-0.0123,-0.0091,-0.0088,-0.0034,-0.0077,-0.0088,-0.0029,-0.0026,-0.0022,0.0029,0.0037,-0.0073,-0.0073,-0.0073,0,-0.0518,-0.0526,-0.0493,-0.0496,-0.0484,-0.0433,-0.0437,-0.0405,-0.0358,-0.0334,-0.0324,-0.0228,-0.0176,-0.0113,-0.0109,-0.009,-0.0057,-0.0078,-0.0032,-0.0027,-0.0023,0.0028,0.0038,-0.0074,-0.0074,-0.0074,-0.0074,0,-0.0557,-0.0563,-0.0569,-0.0553,-0.0535,-0.0531,-0.0479,-0.0456,-0.0422,-0.038,-0.0321,-0.0255,-0.0194,-0.0166,-0.0133,-0.0073,-0.006,-0.0046,-0.0022,-0.0021,0.0032,0.0043,-0.0077,-0.0076,-0.0076,-0.0075,0,0,-0.0611,-0.0601,-0.0602,-0.0603,-0.0564,-0.0551,-0.0525,-0.048,-0.0455,-0.0399,-0.036,-0.0275,-0.0233,-0.0194,-0.0139,-0.008,-0.0013,-0.0054,-0.005,-0.0003,0.0109,0.0144,0.016,0.0006,0.0008,0.0009,0.0134,0,-0.0651,-0.0679,-0.0652,-0.0662,-0.0669,-0.061,-0.0588,-0.0536,-0.0482,-0.043,-0.0342,-0.029,-0.0244,-0.0214,-0.0146,-0.0048,0.0013,-0.0049,0.01,0.0105,0.0137,0.0173,0.0132,0.0242,0.0145,0.0146,0.0148,0,-0.0694,-0.0706,-0.0736,-0.0715,-0.071,-0.0704,-0.0651,-0.0622,-0.053,-0.0487,-0.0413,-0.0345,-0.0243,-0.0214,-0.0042,-0.0087,0.0006,0.0082,0.0088,0.0142,0.016,0.0226,0.0266,0.0167,0.0165,0.0164,0.0162,0,-0.075,-0.0756,-0.0784,-0.0779,-0.0751,-0.0747,-0.0722,-0.0646,-0.0614,-0.0525,-0.0488,-0.0368,-0.0298,-0.0176,-0.0013,-0.0029,0.0176,0.0175,0.0295,0.0298,0.0305,0.0306,0.0296,0.0295,0.0295,0.0295,0.0294,0,-0.0803,-0.082,-0.0818,-0.0833,-0.0855,-0.0805,-0.0801,-0.0755,-0.068,-0.0631,-0.0527,-0.0456,-0.0285,-0.0145,-0.0016,0.0183,0.0179,0.0306,0.034,0.029,0.0289,0.0252,0.0245,0.0299,0.0298,0.0297,0.0297,0,-0.0862,-0.0862,-0.0895,-0.0888,-0.089,-0.0906,-0.0873,-0.0854,-0.0776,-0.0709,-0.0684,-0.0511,-0.0321,-0.0142,0.0081,0.019,0.0362,0.0431,0.036,0.0384,0.0441,0.0431,0.0571,0.0574,0.0576,0.0577,0.0579,0,-0.0897,-0.0924,-0.0952,-0.0982,-0.0988,-0.0999,-0.0999,-0.0925,-0.0889,-0.073,-0.0693,-0.0499,-0.0344,-0.0009,0.0217,0.0453,0.0443,0.0542,0.0511,0.0455,0.0474,0.046,0.0447,0.0505,0.0505,0.0506,0.0506,0,-0.0958,-0.0971,-0.1003,-0.1069,-0.1093,-0.1105,-0.1088,-0.1075,-0.0956,-0.0878,-0.0718,-0.0584,-0.0234,0.0036,0.0343,0.0466,0.0496,0.0563,0.0544,0.0437,0.0401,0.0416,0.0404,0.0512,0.0511,0.0511,0.051,0.051,-0.0999,-0.1046,-0.1092,-0.1147,-0.1176,-0.1187,-0.119,-0.1137,-0.1073,-0.0913,-0.078,-0.0542,-0.0255,0.019,0.0411,0.061,0.0599,0.0625,0.0619,0.0614,0.0579,0.0549,0.0681,0.0681,0.0681,0.0682,0.0682,0,-0.1045,-0.1094,-0.1159,-0.1218,-0.1248,-0.1246,-0.1224,-0.1187,-0.1107,-0.0924,-0.0774,-0.0458,-0.0143,0.0169,0.0505,0.0689,0.0654,0.0697,0.0616,0.0609,0.0603,0.0565,0.0665,0.0666,0.0667,0.0667,0,0,-0.1073,-0.1146,-0.118,-0.1251,-0.1288,-0.13,-0.1286,-0.121,-0.1075,-0.089,-0.0695,-0.0494,-0.0102,0.012,0.0353,0.0536,0.0516,0.0536,0.0525,0.0394,0.0387,0.0536,0.0468,0,0,0,0,0]}],[{"header":{"parameterUnit":"m.s-1","parameterCategory":2,"la1":30.2991,"la2":30.254,"lo1":-89.0895,"lo2":-89.0444,"dy":0.0017,"dx":0.0017,"nx":28,"ny":28,"refTime":"2024-07-19T21:00:00:Z","depth":"4","parameterNumber":2,"parameterNumberName":"U-component_of_CURRENTS"},"data":[0,0,0,0,0,0,0,0,0,0,0,0,0,0,0,0,0,0,0,0,0,0,0,0,0,0,0,0,0,0,0,0,0,0,0,0,0,0,0,0,0,0,0,0,0,0,0,0,0,0,0,0,0,0,0,0,0,0,-0.1825,-0.1825,0,-0.1848,-0.1848,-0.1848,-0.1864,-0.1864,-0.1864,-0.1865,-0.1911,-0.1912,-0.1913,0,0,0,0,0,0,0,0,0,0,0,0,0,-0.1761,-0.1762,-0.1825,-0.1825,-0.1826,-0.1848,-0.1848,-0.1848,-0.1864,-0.1864,-0.1865,-0.1865,-0.1911,-0.1912,-0.1913,0,0,0,0,0,0,0,0,0,0,0,0,0,-0.1786,-0.1763,-0.1825,-0.1837,-0.1838,-0.1848,-0.1848,-0.1848,-0.1864,-0.1864,-0.1865,-0.1865,-0.1911,-0.1912,-0.1914,-0.1916,0,0,-0.1918,-0.1919,0,0,0,0,0,0,0,0,-0.1785,-0.1788,-0.1835,-0.1836,-0.1838,-0.1854,-0.1843,-0.1873,-0.1864,-0.1853,-0.1865,-0.1865,-0.1895,-0.1898,-0.1899,-0.1918,-0.192,-0.1918,-0.1919,-0.192,-0.192,0,0,0,0,0,0,0,-0.1783,-0.1787,-0.1833,-0.1835,-0.1837,-0.183,-0.1834,-0.1848,-0.1871,-0.1854,-0.1855,-0.186,-0.1896,-0.1898,-0.1901,-0.1921,-0.1918,-0.192,-0.1921,-0.1921,-0.1984,-0.1985,0,0,0,0,0,0,-0.1784,-0.1786,-0.1832,-0.1833,-0.1813,-0.1831,-0.1836,-0.1848,-0.1871,-0.1875,-0.186,-0.1861,-0.1895,-0.1899,-0.1902,-0.1967,-0.192,-0.1921,-0.1922,-0.1983,-0.1984,-0.1985,0,0,0,0,0,0,-0.1783,-0.1788,-0.1831,-0.181,-0.1816,-0.1832,-0.1845,-0.1848,-0.188,-0.1875,-0.1879,-0.1892,-0.1895,-0.19,-0.193,-0.1967,-0.1922,-0.1924,-0.1982,-0.1983,-0.1985,-0.2059,0,0,0,0,0,0,-0.1781,-0.1788,-0.1812,-0.1811,-0.1817,-0.1855,-0.1845,-0.1848,-0.1881,-0.1883,-0.1904,-0.1907,-0.1896,-0.1928,-0.1932,-0.1968,-0.1925,-0.1981,-0.1983,-0.1984,-0.2055,-0.2062,-0.2068,0,0,0,0,0,-0.1779,-0.1804,-0.1814,-0.182,-0.1845,-0.1856,-0.1859,-0.187,-0.1883,-0.19,-0.191,-0.1908,-0.194,-0.193,-0.1934,-0.1972,-0.1981,-0.1982,-0.1984,-0.2053,-0.2061,-0.2068,0,0,0,0,0,0,-0.1785,-0.1808,-0.1818,-0.185,-0.1863,-0.186,-0.1883,-0.1891,-0.1913,-0.1926,-0.192,-0.1924,-0.1962,-0.1953,-0.1943,-0.1991,-0.1959,-0.1962,-0.201,-0.2018,-0.2024,-0.2017,-0.1926,0,0,0,0,0,-0.1799,-0.183,-0.184,-0.1868,-0.188,-0.189,-0.1904,-0.1912,-0.1923,-0.1935,-0.1949,-0.1959,-0.1967,-0.1983,-0.1987,-0.202,-0.1993,-0.2044,-0.205,-0.2056,-0.2051,-0.2044,-0.2049,-0.199,-0.199,-0.199,0,0,-0.1807,-0.1826,-0.1844,-0.1873,-0.1887,-0.1908,-0.19,-0.1931,-0.1952,-0.1937,-0.1985,-0.1988,-0.1979,-0.2009,-0.2026,-0.2013,-0.2058,-0.2058,-0.2063,-0.2055,-0.2046,-0.2052,-0.2057,-0.1992,-0.1991,-0.1991,0,0,-0.1822,-0.1861,-0.1884,-0.1905,-0.1935,-0.1943,-0.1961,-0.1981,-0.2,-0.2037,-0.2027,-0.2049,-0.2076,-0.2069,-0.2069,-0.2114,-0.209,-0.2125,-0.2159,-0.2154,-0.2158,-0.2162,-0.2132,-0.2133,-0.2131,-0.2131,-0.2131,0,-0.1831,-0.1863,-0.1891,-0.1917,-0.1938,-0.1965,-0.1987,-0.2011,-0.2039,-0.2053,-0.2065,-0.2094,-0.2099,-0.2114,-0.213,-0.2131,-0.2113,-0.2135,-0.2163,-0.2166,-0.2169,-0.2137,-0.2137,-0.2135,-0.2134,-0.2134,-0.2134,0,-0.1847,-0.1889,-0.1907,-0.1952,-0.1979,-0.2008,-0.2039,-0.2076,-0.2111,-0.2124,-0.2163,-0.2166,-0.2176,-0.219,-0.2179,-0.2203,-0.2179,-0.2171,-0.2145,-0.2179,-0.2143,-0.2142,-0.214,-0.2139,-0.2138,-0.2137,0,0,-0.1816,-0.1901,-0.1911,-0.194,-0.2003,-0.2019,-0.2075,-0.2111,-0.2141,-0.2185,-0.2211,-0.224,-0.2245,-0.2242,-0.2237,-0.224,-0.2252,-0.2223,-0.2221,-0.2196,-0.2225,-0.2068,-0.2051,-0.2256,-0.2257,-0.2257,-0.2191,0,-0.1817,-0.1871,-0.1916,-0.1972,-0.2,-0.2054,-0.2096,-0.2139,-0.218,-0.2216,-0.2235,-0.226,-0.2264,-0.2275,-0.2283,-0.2259,-0.2252,-0.2269,-0.2192,-0.2188,-0.2048,-0.2045,-0.2258,-0.2189,-0.2189,-0.2188,-0.2188,0,-0.1806,-0.1849,-0.1904,-0.1982,-0.2,-0.2041,-0.2109,-0.2149,-0.2207,-0.2238,-0.2273,-0.2286,-0.2305,-0.2302,-0.2284,-0.2298,-0.2266,-0.2245,-0.2241,-0.2065,-0.2028,-0.2148,-0.2185,-0.2185,-0.2185,-0.2185,-0.2186,0,-0.1753,-0.1836,-0.1884,-0.1913,-0.2004,-0.2041,-0.2089,-0.2155,-0.2191,-0.225,-0.2277,-0.2302,-0.2312,-0.2298,-0.2264,-0.2281,-0.2221,-0.2235,-0.2057,-0.2046,-0.2177,-0.2173,-0.2206,-0.2206,-0.2207,-0.2207,-0.2207,0,-0.1722,-0.1762,-0.1869,-0.1895,-0.1947,-0.2019,-0.2074,-0.2126,-0.2195,-0.2211,-0.2283,-0.2278,-0.2315,-0.2288,-0.226,-0.2135,-0.2215,-0.2045,-0.2013,-0.2208,-0.2209,-0.2175,-0.2172,-0.2204,-0.2205,-0.2205,-0.2206,0,-0.165,-0.1728,-0.1785,-0.189,-0.1927,-0.1961,-0.2067,-0.2095,-0.2177,-0.2198,-0.2218,-0.2267,-0.2212,-0.221,-0.2163,-0.2098,-0.2016,-0.1949,-0.2135,-0.2118,-0.1849,-0.1851,-0.1749,-0.1742,-0.1737,-0.1733,-0.1729,0,-0.1612,-0.164,-0.1764,-0.1798,-0.1851,-0.1922,-0.1964,-0.207,-0.2089,-0.2154,-0.2137,-0.2131,-0.2131,-0.1931,-0.1961,-0.1869,-0.1848,-0.1806,-0.1848,-0.182,-0.1801,-0.1811,-0.182,-0.1721,-0.1719,-0.1718,-0.1717,0,-0.1533,-0.1595,-0.1644,-0.1709,-0.1769,-0.1815,-0.1876,-0.1875,-0.196,-0.2074,-0.1981,-0.193,-0.1853,-0.1802,-0.173,-0.1678,-0.1842,-0.1752,-0.1763,-0.1802,-0.1785,-0.1773,-0.1788,-0.1698,-0.1701,-0.1703,-0.1704,0,-0.147,-0.1483,-0.1551,-0.1586,-0.1655,-0.1642,-0.1706,-0.1702,-0.1733,-0.1814,-0.1771,-0.1761,-0.1812,-0.1697,-0.1637,-0.1564,-0.1551,-0.1521,-0.1545,-0.1565,-0.1536,-0.149,-0.1266,0,0,0,0,0,-0.139,-0.1382,-0.1414,-0.1429,-0.1485,-0.1508,-0.1606,-0.167,-0.1763,-0.1647,-0.17,-0.1614,-0.1513,-0.1526,-0.1405,-0.1554,-0.156,-0.1412,-0.154,-0.1598,-0.1619,-0.1602,0,0,0,0,0,0,-0.1334,-0.1364,-0.1361,-0.1271,-0.1245,-0.1274,-0.1323,-0.1399,-0.1348,-0.1457,-0.1406,-0.1506,-0.1431,-0.1524,-0.1359,-0.1363,-0.141,-0.1435,-0.1431,-0.1586,-0.1605,-0.1622,-0.1612,0,0,0,0,0]},{"header":{"parameterUnit":"m.s-1","parameterCategory":2,"la1":30.2991,"la2":30.254,"lo1":-89.0895,"lo2":-89.0444,"dy":0.0017,"dx":0.0017,"nx":28,"ny":28,"refTime":"2024-07-19T21:00:00:Z","depth":"4","parameterNumber":3,"parameterNumberName":"V-component_of_CURRENTS"},"data":[0,0,0,0,0,0,0,0,0,0,0,0,0,0,0,0,0,0,0,0,0,0,0,0,0,0,0,0,0,0,0,0,0,0,0,0,0,0,0,0,0,0,0,0,0,0,0,0,0,0,0,0,0,0,0,0,0,0,-0.0261,-0.0261,0,-0.0232,-0.0231,-0.0231,-0.0207,-0.0207,-0.0207,-0.0207,-0.0143,-0.0141,-0.014,0,0,0,0,0,0,0,0,0,0,0,0,0,-0.0276,-0.0276,-0.0261,-0.0261,-0.026,-0.0232,-0.0231,-0.0231,-0.0207,-0.0207,-0.0207,-0.0206,-0.0143,-0.0141,-0.014,0,0,0,0,0,0,0,0,0,0,0,0,0,-0.026,-0.0276,-0.0261,-0.0245,-0.0243,-0.0232,-0.0231,-0.0231,-0.0207,-0.0207,-0.0207,-0.0206,-0.0144,-0.0142,-0.0139,-0.0133,0,0,-0.0133,-0.0132,0,0,0,0,0,0,0,0,-0.0261,-0.026,-0.0248,-0.0246,-0.0244,-0.0223,-0.0213,-0.0196,-0.0207,-0.0221,-0.0207,-0.0206,-0.0167,-0.0162,-0.0158,-0.013,-0.0127,-0.0132,-0.0131,-0.013,-0.0129,0,0,0,0,0,0,0,-0.0262,-0.0261,-0.0249,-0.0247,-0.0245,-0.0232,-0.023,-0.021,-0.0195,-0.022,-0.0218,-0.0215,-0.0165,-0.016,-0.0156,-0.0126,-0.0132,-0.013,-0.0129,-0.0128,-0.0087,-0.0087,0,0,0,0,0,0,-0.0268,-0.0262,-0.025,-0.0248,-0.0252,-0.0232,-0.023,-0.023,-0.0196,-0.0191,-0.0215,-0.0214,-0.0164,-0.0159,-0.0154,-0.0128,-0.013,-0.0128,-0.0127,-0.0087,-0.0087,-0.0087,0,0,0,0,0,0,-0.0268,-0.0267,-0.0251,-0.0254,-0.0251,-0.0233,-0.0233,-0.023,-0.0227,-0.0193,-0.0187,-0.0217,-0.0164,-0.0157,-0.0144,-0.0126,-0.0127,-0.0125,-0.0086,-0.0087,-0.0087,-0.0086,0,0,0,0,0,0,-0.0269,-0.0267,-0.0276,-0.0255,-0.0251,-0.025,-0.0233,-0.0229,-0.0226,-0.0224,-0.0193,-0.0186,-0.0163,-0.0148,-0.0142,-0.0123,-0.0123,-0.0086,-0.0086,-0.0087,-0.0085,-0.0086,-0.0086,0,0,0,0,0,-0.0269,-0.0283,-0.0277,-0.0276,-0.0262,-0.025,-0.0248,-0.0233,-0.0226,-0.0229,-0.0211,-0.0187,-0.0146,-0.0147,-0.014,-0.0119,-0.0086,-0.0086,-0.0087,-0.0085,-0.0086,-0.0086,0,0,0,0,0,0,-0.0296,-0.0281,-0.0274,-0.0283,-0.027,-0.0247,-0.0252,-0.0238,-0.0227,-0.0227,-0.0194,-0.0186,-0.0167,-0.0152,-0.0153,-0.0111,-0.0111,-0.011,-0.0112,-0.0112,-0.0113,-0.0111,-0.0121,0,0,0,0,0,-0.0306,-0.0313,-0.0291,-0.03,-0.0296,-0.0275,-0.0271,-0.0259,-0.0243,-0.0237,-0.0214,-0.019,-0.0163,-0.0147,-0.0129,-0.0108,-0.008,-0.0091,-0.0091,-0.0091,-0.0087,-0.0028,-0.0022,-0.0089,-0.0089,-0.0089,0,0,-0.032,-0.0313,-0.0317,-0.0307,-0.0297,-0.0291,-0.0272,-0.027,-0.0258,-0.0232,-0.0218,-0.0195,-0.0162,-0.0137,-0.0125,-0.012,-0.0062,-0.0092,-0.0092,-0.0088,-0.0028,-0.0021,-0.0015,-0.0089,-0.0089,-0.0089,0,0,-0.0348,-0.0344,-0.0356,-0.0345,-0.0332,-0.0315,-0.0315,-0.0293,-0.0278,-0.0265,-0.0236,-0.0202,-0.0179,-0.0134,-0.0112,-0.0105,-0.0071,-0.0106,-0.0095,-0.0038,-0.0031,-0.0025,0.0007,0.0017,-0.0099,-0.0099,-0.0099,0,-0.0366,-0.0373,-0.0358,-0.036,-0.0352,-0.0326,-0.0327,-0.0307,-0.0282,-0.0263,-0.0266,-0.0201,-0.017,-0.0111,-0.0106,-0.0101,-0.0079,-0.0092,-0.0036,-0.0029,-0.0023,0.0009,0.0019,-0.0099,-0.0099,-0.0099,-0.0099,0,-0.0391,-0.0398,-0.0403,-0.0394,-0.0384,-0.0383,-0.0349,-0.0336,-0.0317,-0.0286,-0.0241,-0.0199,-0.0155,-0.0135,-0.0117,-0.0052,-0.0056,-0.0046,-0.0029,-0.0015,0.0016,0.0027,-0.0099,-0.0099,-0.0099,-0.0099,0,0,-0.0427,-0.0423,-0.0425,-0.0424,-0.04,-0.0393,-0.0372,-0.0335,-0.0314,-0.0279,-0.0243,-0.0179,-0.0151,-0.0124,-0.0086,-0.0029,0.0038,-0.0021,-0.0018,0.0019,0.0146,0.0112,0.012,0.0057,0.0059,0.0061,0.0146,0,-0.045,-0.0467,-0.0451,-0.0455,-0.0456,-0.042,-0.0401,-0.0362,-0.0326,-0.0286,-0.0215,-0.0178,-0.0147,-0.0127,-0.0061,0.0007,0.0067,0.0013,0.012,0.0122,0.0098,0.0132,0.0068,0.0154,0.0157,0.0159,0.016,0,-0.0475,-0.0481,-0.0499,-0.048,-0.0476,-0.0475,-0.0433,-0.041,-0.0339,-0.031,-0.0247,-0.0201,-0.0111,-0.0096,0.0048,0.0007,0.0078,0.0133,0.0138,0.0115,0.0109,0.0139,0.018,0.0178,0.0177,0.0175,0.0174,0,-0.0506,-0.0507,-0.0525,-0.052,-0.05,-0.0498,-0.0481,-0.0424,-0.0403,-0.0328,-0.0308,-0.0198,-0.0153,-0.0043,0.0066,0.006,0.0214,0.0222,0.0262,0.026,0.0265,0.0257,0.0335,0.0335,0.0335,0.0335,0.0334,0,-0.053,-0.0542,-0.0548,-0.0557,-0.0573,-0.0537,-0.0537,-0.0501,-0.0448,-0.0421,-0.0329,-0.0286,-0.0137,-0.0037,0.0067,0.0189,0.0219,0.0272,0.0288,0.0259,0.025,0.0272,0.0263,0.0338,0.0337,0.0336,0.0336,0,-0.0565,-0.0568,-0.0593,-0.0591,-0.0597,-0.0611,-0.0601,-0.059,-0.0532,-0.0497,-0.0478,-0.0347,-0.0217,-0.0074,0.0105,0.0177,0.0303,0.0342,0.0285,0.0294,0.0309,0.03,0.0398,0.0398,0.0398,0.0398,0.0398,0,-0.0583,-0.0602,-0.0639,-0.067,-0.0681,-0.0697,-0.0707,-0.0652,-0.0635,-0.0535,-0.0518,-0.0385,-0.029,-0.0066,0.0087,0.0281,0.0309,0.0366,0.036,0.0315,0.0321,0.0312,0.0303,0.0397,0.0397,0.0397,0.0397,0,-0.0618,-0.0643,-0.067,-0.0742,-0.0775,-0.0794,-0.0798,-0.079,-0.0712,-0.0662,-0.0548,-0.0412,-0.0263,-0.0079,0.0068,0.0211,0.0324,0.0364,0.0366,0.036,0.0315,0.0318,0.031,0.0396,0.0396,0.0396,0.0396,0,-0.0654,-0.0693,-0.0746,-0.0799,-0.085,-0.0872,-0.0864,-0.0823,-0.0787,-0.0661,-0.0626,-0.0441,-0.0322,-0.0115,0.0024,0.0154,0.0191,0.0227,0.0237,0.024,0.0165,0.0082,0.0116,0,0,0,0,0,-0.0681,-0.0732,-0.0795,-0.0852,-0.09,-0.0921,-0.0913,-0.0885,-0.0811,-0.0744,-0.0679,-0.0535,-0.0299,-0.0184,-0.0061,0.0008,0.0199,0.0156,0.0241,0.0391,0.0392,0.0329,0,0,0,0,0,0,-0.0706,-0.0775,-0.0803,-0.0878,-0.0923,-0.0962,-0.0957,-0.0908,-0.0853,-0.0764,-0.0638,-0.0529,-0.0303,-0.0384,-0.007,-0.0025,0.0042,0.028,0.0283,0.0391,0.0392,0.0392,0.0328,0,0,0,0,0]}]]